Regional Weather Roundup
Issued by NWS

Home | Current Version | Previous Version | Text Only | Print | Product List | Glossary On
Versions: 1 2 3 4 5 6 7 8 9 10 11 12 13 14 15 16 17 18 19 20 21 22 23 24 25 26 27 28 29 30 31 32 33 34 35 36 37 38 39 40 41 42 43 44 45 46 47 48 49 50
000
ASCA44 KEWX 201720
RWRMX

LATIN AMERICA AND CARIBBEAN REGIONAL WEATHER ROUNDUP
NATIONAL WEATHER SERVICE AUSTIN/SAN ANTONIO TX
1100 AM CST TUE FEB 20 2018

NOTE: "FAIR" INDICATED FEW OR NO CLOUDS BELOW 12,000 FEET WITH NO
SIGNIFICANT WEATHER AND/OR OBSTRUCTIONS TO VISIBILITY.

BAJA CALIFORNIA

CITY           SKY/WX    TMP DP  RH WIND       PRES   REMARKS
LORETO         MOSUNNY   66  55  68 NE8       30.03R
LA PAZ         MOSUNNY   68  52  56 CALM      30.10
MEXICALI       SUNNY     50  23  34 NW6       30.16R WCI  48
S.J. DEL CABO  MOSUNNY   72  61  68 SE7       30.06R
TIJUANA        SUNNY     48  27  43 E6        30.19R WCI  46

NORTHWESTERN MEXICO

CITY           SKY/WX    TMP DP  RH WIND       PRES   REMARKS
CULIACAN       MOSUNNY   72  63  73 CALM      30.05R
DURANGO        MOSUNNY   61  39  44 S16       30.20S
GUAYMAS        MOSUNNY   64  48  55 N13       30.00R
HERMOSILLO     PTSUNNY   61  43  51 CALM      30.07R
CD. JUAREZ     MOSUNNY   57  32  38 SW9       29.98S
LOS MOCHIS     MOSUNNY   68  52  56 W9        30.05R
OBREGON        MOSUNNY   64  54  68 W5        30.01R

NORTHEASTERN MEXICO

CITY           SKY/WX    TMP DP  RH WIND       PRES   REMARKS
CHIHUAHUA      SUNNY     63  32  31 SW16      30.04S
MATAMOROS      PTSUNNY   79  72  78 SE14G25   29.94
MONCLOVA       PTSUNNY   79  46  31 CALM      29.90S
MONTERREY      PTSUNNY   73  63  68 CALM      29.91S
NUEVO LAREDO   PTSUNNY   77  66  69 S12       29.89R
PIEDRAS NEGRAS   N/A    N/A N/A N/A MISG        N/A
REYNOSA        CLOUDY    77  68  73 SE23      29.92S
SALTILLO       PTSUNNY   72  52  49 S12       30.14F
TORREON        PTSUNNY   75  41  29 SE8       30.03S
CD. VICTORIA   PTSUNNY   77  64  65 SE14      29.93F

WESTERN MEXICO

CITY           SKY/WX    TMP DP  RH WIND       PRES   REMARKS
AGUASCALIENTES MOSUNNY   64  39  39 S7        30.28S
COLIMA         MOSUNNY   77  61  57 N9        30.14R
DEL BAJIO      PTSUNNY   68  43  40 W6        30.32S
GUADALAJARA    PTSUNNY   68  39  34 CALM      30.22S
MANZANILLO     MOSUNNY   82  75  78 SE12      29.98R
MAZATLAN       CLOUDY    75  57  53 N6        30.02R
P. VALLARTA    PTSUNNY   77  66  69 CALM      30.01R
URUAPAN        SUNNY     68  48  49 CALM      30.23R
ZACATECAS      MOSUNNY   63  37  39 W23       30.26R

CENTRAL MEXICO

CITY           SKY/WX    TMP DP  RH WIND       PRES   REMARKS
CUERNAVACA     MOSUNNY   77  48  36 SE6       30.18S
MEXICO CITY    MOSUNNY   64  43  45 E6        30.33F
MORELIA        MOSUNNY   66  46  48 NW3       30.26F
POZA RICA      PTSUNNY   79  70  73 CALM      30.00S
PUEBLA         MOSUNNY   63  43  48 CALM      30.34F
QUERETARO      PTSUNNY   66  45  45 W8        30.32S
S. LUIS POTOSI MOSUNNY   70  30  23 SW13      30.22S
TAMPICO        PTSUNNY   77  72  83 MISG      29.96S
TOLUCA         PTSUNNY   61  39  44 SE8       30.39S

SOUTHERN MEXICO

CITY           SKY/WX    TMP DP  RH WIND       PRES   REMARKS
ACAPULCO       MOSUNNY   84  72  65 W2        29.99S
B. DE HUATULCO SUNNY    N/A N/A N/A CALM      30.01F
OAXACA           N/A    N/A N/A N/A MISG        N/A
P. ESCONDIDO   SUNNY     77  66  69 S6        30.08S
VERACRUZ       MOSUNNY   84  72  65 SE7       29.94F
ZIHUATANEJO    MOSUNNY   86  72  62 SW5       30.00  HX  92

YUCATAN PENINSULA

CITY           SKY/WX    TMP DP  RH WIND       PRES   REMARKS
CAMPECHE       MOSUNNY   86  72  62 E17G29    29.98F HX  92
CANCUN         MOSUNNY   82  72  69 E15       30.14S
CHETUMAL       PTSUNNY   82  73  74 E18       30.06S
CD. DEL CARMEN MOSUNNY   82  72  69 E17       30.00F
COZUMEL        PTSUNNY   82  72  69 SE18G30   30.11F
MERIDA         PTSUNNY   88  66  48 E28       30.06F HX  90
MINATITLAN     MOSUNNY   84  73  70 CALM      29.93F HX  91
TAPACHULA      SUNNY     90  63  40 N6        29.97F HX  90
TUX. GUTIERREZ SUNNY     84  61  45 SE7       30.03
VILLAHERMOSA     N/A    N/A N/A N/A MISG        N/A

CENTRAL AMERICA

CITY           SKY/WX    TMP DP  RH WIND       PRES   REMARKS
BELIZE CITY    MOSUNNY   84  73  70 SE13G25   30.03F HX  91
MANAGUA        MOSUNNY   88  66  48 E23       29.92F HX  90

CARIBBEAN

CITY           SKY/WX    TMP DP  RH WIND       PRES   REMARKS
ARUBA          MOSUNNY   84  73  70 E25G38    30.00F HX  91
CURACAO        MOSUNNY   84  72  65 E16       30.03F
KINGSTON       MOSUNNY   88  64  45 SE17      30.06F
NASSAU         PTSUNNY   84  70  61 E15       30.32F
SAN JUAN       MOSUNNY   82  68  61 NE20G28   30.18F
SANTO DOMINGO  PTSUNNY   82  70  65 NE16G25   30.15F
ST. CROIX      CLOUDY    81  70  69 NE20G28   30.15
ST. MAARTEN    MOSUNNY   82  64  54 E20       30.12F
ST. THOMAS     LGT RAIN  81  70  69 NE16G28   30.16

$$





USA.gov is the U.S. government's official web portal to all federal, state and local government web resources and services.